Vertical_Velocity
-2 -2 -2 -3 -3 -2 -1 -1 -1 -1 -2 -2 -2 -3 -3 -3 -2 -2 -2 -2 -3 -3 -3 -3 -2 -3 -3 -2 -3 -3 -3 -1 1 2 2 2 1 -0 -1 -1 -1 -0 -0 0 1 1 1 1 1 1 1 2 2 2 2 1 1 1 1 2 2 2 2 3 3 3 3 2 3
-2 -1 -1 -2 -2 -2 -1 -1 -0 -0 -1 -1 -2 -2 -2 -2 -2 -2 -2 -2 -2 -2 -3 -3 -2 -2 -2 -2 -2 -2 -3 -2 -1 1 2 3 2 1 -0 -1 -1 -1 -0 0 0 0 0 1 1 1 2 2 2 2 2 2 1 1 1 2 2 2 2 3 3 3 3 3 4
-1 -1 -1 -1 -2 -2 -2 -1 -1 -0 -0 -1 -1 -1 -2 -2 -2 -2 -2 -2 -1 -2 -2 -3 -2 -2 -2 -2 -2 -2 -2 -2 -2 -1 0 2 2 1 -0 -1 -1 -1 -1 -0 -0 -0 0 1 1 1 1 2 2 2 2 2 2 2 1 1 2 2 3 3 3 3 3 4 5
-1 -1 -1 -1 -1 -2 -2 -2 -2 -1 -1 -0 -1 -1 -1 -1 -2 -2 -2 -2 -1 -1 -1 -2 -2 -2 -2 -2 -2 -2 -1 -2 -2 -2 -1 1 2 1 0 -1 -2 -2 -1 -0 0 1 1 1 1 1 1 1 1 1 1 2 2 2 1 1 2 2 3 3 3 3 4 4 5
-1 -1 -1 -1 -1 -1 -1 -1 -2 -2 -2 -1 -1 -1 -1 -2 -2 -2 -2 -2 -1 -1 -1 -1 -1 -1 -1 -1 -2 -1 -1 -1 -1 -2 -1 -0 1 1 1 -1 -1 -1 -1 0 1 1 1 1 1 1 1 1 1 1 1 1 1 1 1 1 2 2 2 3 3 4 4 5 5
-1 -1 -1 -1 -1 -1 -1 -1 -1 -1 -1 -1 -1 -1 -2 -2 -2 -2 -2 -2 -2 -1 -0 -0 -0 -1 -1 -1 -1 -1 -1 -1 -0 -1 -1 -1 0 1 1 0 -0 -0 0 1 1 2 2 1 1 1 1 1 1 2 2 2 1 1 1 2 2 2 2 2 3 4 4 4 5
-1 -1 -1 -1 -1 -1 -1 -1 -1 -1 -1 -1 -1 -1 -1 -2 -2 -2 -1 -1 -2 -2 -1 -1 -1 -1 -2 -2 -2 -2 -1 -1 -0 -0 -0 -1 -0 0 1 1 1 1 1 1 1 2 2 1 1 0 -0 -0 0 1 2 2 2 1 1 2 2 2 2 3 3 3 4 4 5
-1 -1 -0 -0 -0 -0 -0 -1 -1 -1 -1 -1 -1 -1 -1 -2 -2 -2 -1 -1 -1 -2 -2 -2 -2 -2 -2 -3 -3 -3 -2 -1 -0 0 0 -0 -0 -0 1 1 2 2 2 1 2 2 2 2 1 -0 -1 -1 -1 -0 1 2 2 1 1 1 2 2 3 2 3 3 4 4 5
-1 -1 -1 -0 -0 -0 -0 -0 -0 -1 -1 -1 -1 -1 -1 -2 -2 -2 -2 -2 -2 -2 -2 -3 -2 -2 -2 -2 -3 -3 -2 -2 -1 -0 0 0 -0 -0 0 1 2 2 2 2 2 2 2 2 1 0 -0 -1 -1 -1 -0 1 1 1 2 2 2 2 3 3 3 3 3 3 4
-2 -1 -1 -1 -1 -0 -0 -0 -0 -0 -0 -1 -1 -1 -1 -1 -1 -1 -2 -2 -2 -2 -2 -3 -3 -3 -2 -2 -2 -3 -2 -2 -1 -1 0 1 0 0 0 1 2 2 1 2 3 3 3 2 2 1 1 -0 -1 -1 -1 0 1 1 1 2 2 2 3 4 3 3 3 3 3
-2 -2 -1 -1 -1 -1 -1 -1 -0 -0 -0 -1 -0 -0 -0 -1 -1 -1 -1 -2 -2 -2 -2 -2 -3 -3 -3 -3 -3 -2 -2 -2 -2 -1 -0 1 1 0 0 1 1 1 1 3 3 3 2 3 2 2 1 1 -1 -1 -1 -0 0 1 1 2 2 2 2 3 3 3 3 3 3
-2 -2 -2 -2 -1 -1 -1 -1 -1 -1 -1 -1 -1 -0 -0 -0 -1 -1 -1 -1 -1 -1 -1 -1 -2 -3 -3 -3 -3 -3 -3 -2 -2 -1 -0 0 0 1 1 1 1 0 1 4 4 3 3 5 4 3 2 1 -0 -1 -1 -0 0 1 1 2 2 2 2 3 3 3 3 3 3
-2 -2 -2 -2 -2 -2 -2 -2 -1 -1 -1 -1 -1 -1 -1 -1 -1 -1 -1 -1 -1 -1 -1 -1 -1 -2 -3 -4 -4 -3 -3 -3 -3 -2 -1 -0 0 0 1 1 0 1 2 5 4 4 5 8 7 4 2 1 -0 -1 -1 -0 0 1 1 1 2 2 2 3 3 3 3 3 3
-2 -2 -2 -2 -2 -2 -2 -2 -2 -2 -1 -2 -2 -1 -1 -1 -1 -1 -1 -1 -1 -1 -1 -1 -1 -2 -2 -4 -4 -4 -3 -3 -3 -2 -1 -0 0 0 0 1 0 2 3 6 5 6 7 10 8 6 3 1 -0 -1 -1 0 1 1 1 1 1 2 2 2 2 2 3 3 3
-2 -2 -2 -2 -2 -2 -2 -2 -2 -2 -2 -2 -2 -2 -2 -1 -1 -1 -1 -1 -1 -1 -1 -2 -2 -2 -2 -2 -3 -3 -3 -3 -3 -3 -2 -1 0 0 0 0 1 2 5 7 6 7 8 8 7 6 6 4 1 -1 -2 -1 1 1 2 1 1 1 2 2 2 2 2 2 3
-1 -1 -2 -2 -2 -2 -3 -3 -3 -3 -3 -2 -2 -2 -2 -2 -1 -1 -1 -1 -1 -1 -0 -1 -2 -2 -2 -2 -3 -3 -3 -3 -3 -3 -3 -2 -0 0 0 1 2 3 5 7 7 7 6 5 7 9 10 8 3 -1 -3 -2 -0 1 1 1 1 1 1 1 1 2 2 2 3
-1 -1 -2 -2 -2 -2 -2 -3 -3 -2 -2 -2 -2 -2 -2 -2 -2 -1 -1 -1 -2 -1 -1 -0 -1 -2 -2 -3 -3 -3 -3 -3 -3 -3 -3 -2 -2 -1 0 1 2 4 5 7 6 5 5 5 9 12 11 8 3 -1 -3 -3 -1 -0 0 1 1 1 1 1 1 1 2 2 2
-1 -1 -2 -2 -2 -2 -2 -2 -2 -2 -2 -2 -2 -1 -2 -2 -2 -2 -1 -1 -1 -1 -1 -1 -1 -1 -2 -3 -3 -4 -4 -4 -3 -3 -3 -3 -2 -1 -0 1 3 4 5 6 6 5 5 7 10 9 5 1 0 -1 -3 -3 -2 -1 -0 -0 0 1 1 1 1 1 1 2 2
-2 -2 -2 -2 -2 -2 -2 -2 -2 -2 -1 -1 -1 -1 -1 -1 -2 -2 -1 -1 -0 -1 -1 -2 -1 -1 -1 -1 -2 -3 -3 -3 -3 -3 -3 -2 -2 -1 -0 1 2 3 4 5 5 5 5 8 9 6 0 -4 -2 -1 -1 -3 -2 -2 -1 -1 -1 -0 0 1 1 2 2 2 3
-2 -2 -2 -2 -2 -2 -2 -1 -1 -1 -1 -1 -1 -1 -1 -1 -1 -1 -1 -1 -1 -0 -1 -1 -1 -1 -1 -1 -1 -2 -2 -2 -2 -3 -3 -3 -2 -2 -1 1 2 3 4 4 4 5 6 8 8 4 -1 -6 -0 1 0 -3 -2 -2 -2 -2 -2 -1 -1 -0 1 2 2 3 3
-2 -2 -2 -2 -2 -2 -2 -1 -1 -1 -1 -1 -1 -1 -1 -1 -1 -1 -1 -1 -1 -1 -0 -0 -1 -1 -2 -2 -2 -2 -2 -2 -2 -2 -3 -3 -3 -2 -1 1 3 3 4 4 4 5 6 9 8 5 -1 -8 1 3 1 -2 -2 -2 -2 -2 -2 -2 -2 -1 0 2 3 3 3
-2 -2 -2 -1 -1 -1 -1 -1 -1 -1 -1 -1 -1 -0 -0 -0 0 0 -0 -1 -1 -1 -0 -0 -0 -0 -1 -2 -2 -2 -2 -1 -1 -1 -2 -3 -3 -2 -1 1 3 3 4 4 3 3 5 8 9 5 -0 -6 2 3 1 -1 -1 -1 -1 -1 -1 -2 -2 -1 -0 1 3 4 4
-2 -2 -2 -1 -1 -1 -1 -1 -1 -1 -1 -1 -0 -0 0 0 0 1 1 0 -0 -0 -0 -0 0 0 0 -0 -1 -2 -2 -2 -1 -0 0 -1 -2 -2 -1 1 3 4 5 4 3 2 1 3 6 4 1 1 4 3 0 -1 -1 -1 -1 -1 -1 -1 -1 -1 -0 1 3 4 5
-2 -2 -1 -1 -1 -1 -1 -1 -1 -1 -1 -1 -0 -0 -0 0 0 1 1 1 1 0 -0 -0 0 1 1 1 0 -1 -2 -3 -2 -1 0 1 -0 -1 -1 1 3 5 5 3 3 2 1 0 2 2 3 4 3 1 -0 0 -0 -1 -1 -1 -1 -1 -0 -0 -0 1 2 4 5
-1 -0 -0 -0 -0 -0 -1 -1 -1 -1 -1 -0 -0 -0 0 -0 0 0 1 1 1 1 1 0 0 0 1 1 1 0 -1 -2 -3 -2 -1 1 1 0 0 2 3 4 3 2 4 4 3 2 0 3 8 10 5 2 1 1 0 -0 -1 -1 -1 -1 -1 0 1 1 2 4 5
-0 0 1 1 0 -0 -1 -1 -1 -0 -0 -0 -0 -0 -0 -0 -0 0 0 1 1 1 1 0 -0 -0 0 0 1 1 -0 -1 -2 -2 -2 -0 0 1 1 2 3 3 3 3 4 5 3 0 -1 6 13 14 7 4 2 1 1 0 -0 -0 -1 -2 -2 -0 1 2 2 3 5
-0 1 1 1 1 0 -0 0 0 0 0 -0 -0 -0 -0 -0 -0 -0 0 0 1 1 1 1 0 -0 -0 -0 0 1 0 -1 -2 -2 -2 -1 -0 0 1 1 5 7 7 5 6 5 2 -3 2 8 11 8 5 3 2 1 1 1 1 0 -2 -3 -3 -1 1 2 3 4 5
-0 0 1 1 0 0 1 1 1 0 0 0 0 0 -0 -0 -0 -0 -0 0 0 1 1 1 1 0 -0 -0 0 1 1 -0 -1 -2 -1 -0 0 1 1 1 4 9 11 9 7 3 -1 -4 7 9 5 -0 0 1 1 1 1 2 2 1 -2 -4 -4 -1 1 2 2 3 5
-0 -0 -0 -0 0 1 1 1 0 0 -0 0 0 0 0 0 0 0 -0 -0 -0 -0 -0 -0 0 0 -0 -1 -0 0 1 0 -1 -1 -1 -0 1 1 2 2 5 9 13 14 8 0 -3 2 10 6 -0 -3 -1 0 1 1 1 2 3 3 -2 -5 -5 -1 1 2 2 3 4
-1 -1 -1 -0 0 0 0 0 -0 -0 -0 -0 -0 0 0 0 0 0 -0 -1 -1 -0 0 1 1 1 0 -0 -1 -0 -0 0 -0 -1 -1 0 1 1 2 3 9 12 13 15 7 -2 -3 17 18 8 -3 -4 -1 -0 1 1 2 4 6 6 -2 -6 -6 -1 1 2 2 3 4
-1 -1 -1 -0 0 0 -0 -0 -0 -0 -0 -0 -0 -0 0 0 0 0 0 -0 -0 -0 1 2 2 2 2 2 1 1 0 0 0 0 0 1 1 1 1 3 11 15 15 13 5 -3 3 32 27 12 -2 -2 0 1 2 2 3 6 7 5 -3 -6 -5 -1 1 2 2 3 4
-0 -0 -0 -0 -0 -0 -0 -0 -0 -0 -0 0 0 -0 0 1 1 2 2 1 0 -0 -0 1 2 2 2 2 2 2 1 1 1 1 1 1 1 -0 0 3 10 16 16 10 4 2 10 36 24 9 -2 0 2 3 3 3 5 6 6 3 -3 -4 -2 1 1 1 2 2 3
-0 -0 -0 -0 -1 -1 -1 -0 -0 0 1 1 1 0 0 0 1 1 2 1 1 -0 -0 0 1 1 1 1 1 1 1 1 1 2 2 2 2 1 0 2 8 13 15 9 4 4 11 27 19 8 0 2 3 3 3 4 6 7 7 4 0 -1 0 2 1 -0 -1 1 1
-1 -1 -0 -0 -1 -1 -0 0 1 1 1 1 1 1 1 0 -0 -1 -0 0 0 1 1 2 2 2 2 1 1 0 0 1 2 2 3 3 3 2 1 2 7 11 13 8 4 5 10 21 14 6 1 1 2 2 3 5 7 8 8 6 3 1 1 3 4 1 -2 -3 -1
-2 -2 -1 -1 -1 -1 -0 0 0 1 0 0 0 1 1 1 -0 -1 -1 -1 -0 1 1 3 4 4 3 3 2 1 0 0 1 3 3 3 3 3 3 3 5 8 10 8 4 4 9 21 8 3 1 0 1 1 2 4 6 7 8 7 4 3 2 4 5 4 1 -4 -3
-2 -2 -2 -1 -0 -0 0 0 0 -0 -0 -0 -0 -1 -1 -0 -1 -1 -2 -2 -1 -0 1 2 3 4 3 3 3 2 1 -0 1 2 3 3 3 3 3 4 5 6 8 8 4 4 10 26 8 2 1 -1 -2 -2 -0 2 4 6 7 7 5 4 3 3 4 5 5 2 -2
-2 -1 -1 -1 0 1 1 0 -0 -0 -1 -0 -0 -1 -1 -2 -2 -2 -3 -4 -3 -2 -1 1 2 2 2 2 2 2 1 0 1 2 3 3 3 3 3 4 5 5 6 8 5 5 10 21 9 2 -0 -2 -4 -5 -4 -2 1 3 4 5 5 4 4 3 5 6 8 10 6
-1 -0 -0 0 1 1 1 -0 -1 -1 -1 -1 -1 -1 -1 -2 -3 -4 -4 -4 -4 -3 -2 -1 0 1 1 1 1 2 2 1 1 2 2 2 2 3 3 4 4 5 5 7 6 6 8 11 10 5 0 -1 -3 -6 -6 -3 -0 2 3 4 4 4 4 5 9 9 9 14 13
-0 0 1 0 0 0 -0 -1 -1 -2 -2 -2 -1 -1 -2 -3 -4 -4 -4 -3 -3 -3 -2 -2 -1 -0 -0 -0 0 1 2 1 1 2 2 2 2 3 3 4 4 4 5 6 7 9 9 1 7 5 0 -0 0 -1 -2 -1 1 2 3 4 4 4 6 10 14 12 8 10 10
0 1 1 1 -0 -1 -1 -1 -1 -1 -1 -2 -2 -2 -3 -3 -3 -3 -2 -2 -1 -2 -2 -2 -1 -1 -1 -1 0 1 1 2 2 2 2 2 2 3 3 4 4 4 4 5 7 10 9 2 4 2 0 -1 1 3 3 3 3 3 3 4 4 4 7 15 15 9 1 -2 -2
0 1 1 1 -0 -1 -2 -2 -1 -1 -1 -1 -2 -2 -3 -3 -3 -3 -2 -1 -1 -1 -1 -2 -2 -1 -1 -0 0 1 1 2 2 2 2 2 2 3 3 4 3 3 3 4 5 6 4 -0 -0 -0 -0 -0 1 3 4 4 4 4 3 2 1 2 6 13 11 3 -6 -10 -8
Height
3023 3020 3018 3016 3013 3011 3009 3007 3005 3003 3000 2998 2996 2995 2992 2991 2989 2987 2985 2983 2981 2980 2978 2976 2975 2973 2971 2970 2968 2967 2965 2964 2962 2960 2959 2957 2956 2954 2953 2952 2951 2950 2949 2948 2948 2947 2946 2946 2946 2946 2946 2946 2945 2945 2945 2944 2944 2943 2943 2943 2942 2942 2942 2942 2942 2943 2943 2944 2944
3021 3019 3016 3014 3012 3010 3007 3005 3003 3001 2999 2997 2995 2993 2990 2989 2987 2985 2983 2981 2980 2977 2976 2974 2972 2971 2970 2968 2966 2965 2963 2961 2960 2958 2956 2955 2954 2952 2951 2950 2949 2948 2947 2946 2946 2945 2944 2944 2944 2943 2943 2943 2943 2943 2943 2942 2942 2941 2941 2940 2940 2940 2940 2940 2940 2940 2941 2941 2941
3020 3017 3015 3012 3010 3008 3006 3004 3002 3000 2997 2995 2993 2991 2989 2987 2985 2983 2981 2980 2978 2976 2974 2972 2970 2969 2967 2966 2965 2963 2961 2959 2957 2955 2954 2953 2951 2950 2948 2947 2946 2945 2945 2944 2943 2943 2942 2942 2941 2941 2941 2941 2941 2940 2940 2940 2940 2939 2938 2938 2938 2937 2937 2937 2937 2938 2938 2939 2939
3018 3015 3013 3011 3009 3006 3004 3002 3000 2998 2995 2993 2991 2989 2987 2985 2983 2981 2980 2978 2976 2974 2972 2970 2969 2967 2965 2964 2962 2961 2959 2957 2955 2954 2952 2950 2949 2948 2946 2945 2944 2943 2943 2942 2941 2941 2940 2940 2939 2939 2939 2939 2938 2938 2938 2938 2937 2937 2936 2936 2935 2935 2935 2935 2935 2935 2936 2936 2936
3016 3014 3011 3009 3007 3005 3002 3000 2998 2996 2994 2992 2990 2987 2985 2983 2981 2979 2978 2976 2974 2972 2970 2969 2967 2965 2964 2962 2960 2959 2957 2955 2953 2951 2950 2948 2947 2945 2944 2943 2942 2941 2940 2940 2940 2939 2938 2938 2937 2937 2937 2936 2936 2936 2936 2935 2935 2935 2934 2934 2933 2933 2933 2933 2933 2933 2933 2934 2934
3015 3012 3010 3007 3005 3003 3000 2998 2996 2994 2992 2990 2988 2986 2984 2982 2980 2978 2976 2974 2973 2971 2969 2967 2965 2964 2962 2960 2958 2957 2955 2953 2951 2950 2948 2946 2945 2943 2942 2940 2940 2939 2939 2938 2938 2937 2936 2936 2935 2935 2935 2934 2934 2934 2934 2933 2933 2932 2932 2932 2931 2931 2930 2930 2930 2930 2931 2931 2931
3013 3010 3008 3006 3003 3001 2999 2997 2995 2992 2990 2988 2986 2984 2982 2980 2978 2976 2975 2973 2971 2969 2967 2966 2964 2962 2960 2958 2956 2955 2953 2951 2949 2947 2945 2944 2942 2941 2940 2939 2938 2938 2937 2937 2936 2935 2935 2934 2934 2933 2932 2932 2932 2932 2931 2931 2930 2930 2930 2929 2929 2929 2928 2928 2928 2928 2928 2928 2929
3011 3009 3006 3004 3002 3000 2997 2995 2993 2991 2989 2986 2985 2982 2980 2978 2976 2975 2973 2971 2969 2967 2965 2964 2962 2960 2958 2956 2955 2953 2951 2949 2947 2945 2943 2942 2940 2939 2937 2936 2936 2936 2936 2935 2935 2934 2933 2932 2932 2931 2930 2930 2930 2929 2929 2929 2928 2928 2928 2927 2927 2926 2926 2926 2926 2926 2926 2926 2926
3010 3007 3005 3003 3000 2998 2995 2993 2991 2989 2987 2985 2983 2981 2979 2977 2975 2973 2971 2970 2968 2966 2964 2962 2960 2959 2957 2955 2953 2951 2949 2947 2945 2943 2941 2940 2938 2936 2935 2935 2934 2934 2934 2934 2933 2932 2932 2931 2930 2929 2929 2928 2928 2927 2927 2926 2926 2926 2926 2925 2925 2924 2924 2924 2924 2923 2923 2923 2924
3008 3005 3003 3001 2999 2996 2994 2992 2990 2987 2985 2983 2981 2979 2977 2975 2973 2971 2970 2968 2966 2964 2962 2960 2959 2957 2955 2953 2951 2949 2947 2945 2943 2941 2939 2937 2936 2935 2933 2933 2933 2933 2933 2932 2932 2931 2930 2929 2928 2928 2927 2926 2925 2925 2925 2925 2924 2924 2924 2923 2923 2922 2922 2922 2921 2921 2921 2921 2921
3006 3004 3002 2999 2997 2995 2992 2990 2988 2986 2984 2982 2980 2978 2976 2974 2972 2970 2968 2966 2965 2963 2961 2959 2957 2955 2954 2951 2950 2947 2945 2943 2941 2939 2937 2935 2934 2932 2931 2931 2931 2931 2931 2931 2930 2930 2929 2928 2927 2926 2925 2925 2924 2923 2923 2923 2922 2922 2922 2921 2921 2920 2920 2920 2919 2919 2919 2919 2919
3005 3002 3000 2998 2995 2993 2991 2989 2986 2984 2982 2980 2978 2976 2974 2972 2970 2968 2966 2965 2963 2961 2960 2958 2956 2954 2952 2950 2948 2946 2944 2941 2939 2937 2935 2933 2932 2930 2930 2929 2929 2929 2930 2930 2929 2928 2927 2927 2925 2925 2924 2923 2922 2921 2921 2921 2920 2920 2920 2920 2919 2919 2918 2918 2917 2917 2916 2916 2916
3003 3001 2998 2996 2994 2991 2989 2987 2985 2983 2981 2979 2976 2975 2972 2970 2969 2966 2965 2963 2961 2960 2958 2956 2954 2952 2950 2948 2946 2944 2942 2940 2938 2935 2933 2931 2930 2929 2928 2927 2927 2928 2928 2928 2928 2927 2926 2925 2924 2923 2922 2921 2920 2920 2920 2919 2919 2919 2918 2918 2917 2917 2916 2916 2915 2915 2915 2914 2914
3002 3000 2997 2995 2992 2990 2988 2985 2983 2981 2979 2977 2975 2973 2971 2969 2967 2965 2963 2961 2960 2958 2956 2955 2953 2951 2949 2947 2945 2943 2941 2939 2936 2934 2932 2930 2928 2927 2926 2926 2926 2926 2927 2927 2926 2926 2925 2924 2923 2922 2920 2920 2919 2918 2918 2918 2917 2917 2917 2916 2915 2915 2915 2914 2913 2913 2913 2912 2912
3001 2998 2996 2993 2991 2989 2986 2984 2982 2980 2977 2975 2973 2971 2969 2967 2965 2963 2961 2960 2958 2956 2955 2953 2951 2949 2947 2945 2944 2941 2940 2937 2935 2933 2930 2928 2927 2925 2925 2924 2925 2925 2925 2925 2925 2924 2924 2923 2921 2920 2920 2918 2917 2917 2916 2916 2916 2916 2915 2914 2914 2913 2913 2912 2911 2911 2911 2910 2910
3000 2997 2995 2992 2990 2987 2985 2982 2980 2978 2976 2974 2972 2970 2968 2966 2964 2962 2960 2958 2956 2955 2953 2951 2950 2948 2946 2944 2942 2940 2938 2936 2934 2932 2929 2927 2925 2924 2923 2923 2923 2924 2924 2924 2923 2923 2922 2921 2920 2920 2918 2917 2916 2915 2915 2915 2915 2914 2913 2913 2912 2911 2911 2910 2910 2910 2909 2909 2909
2998 2996 2993 2991 2988 2986 2984 2981 2979 2977 2975 2972 2970 2968 2966 2964 2962 2960 2958 2956 2955 2953 2951 2950 2948 2946 2944 2942 2940 2939 2937 2935 2933 2930 2928 2926 2924 2922 2922 2922 2922 2922 2922 2922 2922 2921 2920 2920 2919 2918 2916 2915 2914 2913 2913 2913 2913 2912 2911 2911 2910 2910 2910 2909 2909 2908 2908 2907 2907
2997 2995 2992 2990 2987 2985 2983 2980 2978 2975 2973 2971 2969 2967 2965 2963 2961 2959 2957 2955 2953 2951 2950 2948 2946 2944 2942 2941 2939 2937 2935 2934 2931 2930 2927 2925 2923 2921 2920 2920 2920 2920 2920 2920 2920 2920 2919 2918 2917 2915 2914 2913 2913 2912 2912 2912 2911 2910 2910 2909 2909 2908 2908 2908 2907 2907 2906 2906 2906
2995 2993 2991 2988 2986 2984 2981 2979 2977 2974 2972 2970 2968 2966 2964 2961 2959 2957 2955 2953 2951 2950 2948 2946 2944 2942 2941 2939 2937 2935 2934 2932 2930 2928 2926 2924 2921 2920 2919 2919 2919 2919 2919 2919 2919 2918 2917 2916 2915 2913 2912 2911 2912 2912 2911 2910 2909 2909 2908 2908 2907 2907 2906 2906 2906 2905 2905 2905 2905
2994 2992 2990 2987 2985 2982 2980 2978 2975 2973 2971 2969 2966 2964 2962 2960 2958 2956 2954 2952 2950 2948 2946 2944 2942 2940 2939 2937 2936 2934 2932 2931 2929 2927 2925 2923 2920 2919 2918 2917 2917 2918 2918 2918 2917 2916 2915 2915 2913 2912 2911 2910 2911 2911 2910 2909 2908 2907 2907 2906 2906 2905 2905 2905 2905 2904 2904 2904 2904
2993 2990 2988 2985 2983 2981 2978 2976 2974 2971 2969 2967 2965 2963 2960 2958 2956 2954 2952 2950 2948 2946 2945 2943 2941 2939 2937 2935 2934 2933 2931 2929 2928 2926 2924 2921 2920 2918 2917 2916 2916 2916 2917 2917 2916 2915 2914 2913 2912 2911 2910 2909 2911 2910 2908 2907 2907 2906 2905 2905 2905 2904 2904 2903 2903 2903 2903 2903 2902
2992 2989 2987 2984 2982 2979 2977 2975 2972 2970 2968 2965 2963 2961 2959 2957 2955 2953 2950 2949 2946 2945 2943 2941 2939 2937 2935 2934 2932 2931 2929 2928 2926 2925 2923 2920 2919 2917 2916 2915 2915 2916 2916 2916 2915 2914 2913 2912 2911 2910 2909 2909 2910 2909 2907 2906 2905 2905 2904 2904 2903 2903 2902 2902 2902 2902 2902 2901 2901
2991 2988 2985 2983 2980 2978 2975 2973 2971 2968 2966 2964 2962 2960 2957 2955 2953 2951 2949 2947 2945 2943 2941 2940 2938 2936 2934 2932 2930 2929 2928 2926 2925 2924 2922 2920 2918 2916 2915 2915 2915 2915 2915 2915 2914 2912 2911 2910 2910 2909 2909 2909 2909 2907 2906 2905 2905 2904 2903 2902 2902 2901 2901 2900 2900 2900 2900 2900 2900
2990 2987 2984 2982 2979 2977 2974 2972 2969 2967 2965 2962 2960 2958 2955 2953 2951 2949 2947 2945 2943 2941 2940 2938 2936 2934 2932 2931 2929 2927 2926 2925 2924 2922 2921 2919 2917 2915 2914 2914 2914 2915 2915 2914 2913 2912 2910 2909 2909 2908 2909 2909 2907 2906 2905 2904 2904 2903 2902 2901 2900 2900 2900 2899 2899 2899 2899 2899 2899
2989 2986 2983 2981 2978 2975 2973 2970 2968 2965 2963 2961 2959 2956 2954 2951 2950 2947 2945 2944 2942 2940 2938 2936 2934 2932 2931 2929 2928 2926 2925 2923 2922 2921 2920 2918 2916 2915 2913 2913 2914 2914 2914 2913 2913 2911 2910 2909 2908 2909 2909 2908 2906 2905 2904 2904 2903 2902 2901 2900 2899 2899 2898 2898 2897 2897 2897 2897 2898
2987 2985 2982 2980 2977 2974 2971 2969 2966 2964 2961 2959 2957 2954 2952 2950 2948 2945 2944 2942 2940 2938 2936 2934 2932 2930 2929 2927 2926 2925 2923 2922 2920 2920 2918 2917 2915 2914 2913 2913 2913 2913 2913 2913 2912 2911 2909 2908 2908 2909 2909 2906 2905 2904 2903 2903 2902 2901 2900 2899 2898 2897 2897 2896 2896 2896 2896 2896 2896
2986 2983 2981 2978 2975 2973 2970 2967 2965 2962 2960 2957 2955 2952 2950 2948 2945 2943 2941 2940 2938 2936 2934 2932 2930 2929 2927 2926 2924 2923 2922 2920 2919 2918 2917 2915 2914 2913 2912 2912 2912 2913 2913 2912 2911 2909 2908 2907 2909 2909 2907 2905 2904 2903 2902 2902 2901 2900 2899 2898 2897 2896 2895 2895 2895 2895 2895 2895 2895
2985 2982 2980 2977 2974 2971 2969 2966 2963 2960 2958 2955 2953 2950 2948 2946 2944 2941 2939 2937 2935 2934 2932 2930 2928 2927 2925 2924 2922 2921 2920 2919 2918 2916 2915 2914 2913 2912 2911 2911 2912 2912 2912 2911 2910 2908 2907 2907 2908 2907 2905 2903 2903 2902 2902 2901 2900 2900 2899 2897 2896 2895 2894 2894 2894 2894 2894 2893 2893
2983 2981 2978 2975 2972 2970 2967 2964 2962 2959 2956 2954 2951 2949 2946 2944 2941 2939 2937 2935 2933 2931 2930 2928 2926 2925 2923 2922 2920 2919 2918 2917 2916 2915 2914 2913 2912 2911 2910 2911 2911 2911 2911 2910 2908 2907 2906 2907 2907 2905 2903 2902 2902 2901 2901 2900 2900 2899 2898 2896 2895 2894 2893 2894 2894 2893 2893 2892 2892
2982 2979 2976 2974 2971 2968 2965 2963 2960 2957 2955 2952 2949 2947 2944 2942 2940 2937 2935 2933 2931 2929 2927 2926 2924 2923 2921 2920 2919 2917 2916 2915 2914 2914 2913 2912 2910 2910 2910 2910 2910 2910 2910 2909 2907 2906 2906 2908 2907 2904 2902 2901 2901 2900 2900 2900 2899 2899 2897 2896 2894 2893 2893 2893 2893 2893 2892 2891 2891
2981 2978 2975 2972 2970 2967 2964 2961 2959 2956 2953 2950 2948 2945 2942 2940 2937 2935 2933 2930 2929 2927 2925 2924 2922 2921 2919 2918 2917 2915 2914 2913 2913 2912 2911 2910 2909 2908 2908 2908 2908 2908 2908 2907 2906 2905 2906 2908 2905 2902 2900 2900 2900 2900 2899 2899 2898 2898 2897 2895 2893 2892 2892 2893 2893 2892 2891 2890 2890
2980 2977 2974 2971 2968 2965 2963 2960 2957 2955 2952 2949 2946 2944 2941 2938 2936 2933 2931 2929 2926 2925 2923 2921 2920 2919 2917 2916 2915 2914 2912 2911 2911 2910 2910 2909 2908 2907 2906 2906 2907 2907 2907 2906 2905 2904 2905 2907 2904 2901 2899 2899 2899 2898 2898 2898 2897 2897 2896 2894 2893 2892 2893 2893 2893 2892 2891 2890 2889
2978 2975 2973 2970 2967 2964 2962 2959 2956 2953 2950 2948 2945 2942 2939 2936 2934 2931 2929 2926 2924 2922 2920 2919 2918 2916 2915 2914 2912 2911 2910 2910 2909 2908 2908 2907 2906 2905 2905 2905 2905 2905 2905 2905 2903 2903 2904 2905 2902 2900 2899 2898 2898 2897 2897 2897 2896 2896 2895 2894 2893 2893 2893 2894 2893 2892 2890 2889 2888
2977 2975 2972 2969 2966 2963 2960 2958 2955 2952 2949 2946 2944 2940 2938 2935 2932 2929 2927 2925 2922 2920 2919 2917 2916 2914 2913 2912 2910 2910 2909 2908 2907 2906 2906 2905 2905 2904 2903 2903 2903 2904 2904 2904 2903 2903 2904 2904 2901 2899 2898 2898 2897 2896 2896 2896 2896 2895 2895 2894 2894 2893 2893 2894 2894 2893 2890 2888 2887
2976 2973 2971 2968 2965 2962 2960 2957 2954 2951 2948 2945 2942 2939 2936 2933 2930 2928 2925 2923 2921 2919 2917 2915 2914 2913 2911 2910 2909 2908 2907 2906 2905 2905 2904 2904 2903 2903 2902 2901 2902 2902 2903 2903 2902 2902 2904 2904 2900 2898 2898 2897 2896 2896 2895 2895 2895 2895 2895 2895 2894 2894 2894 2894 2894 2894 2891 2889 2887
2975 2972 2970 2967 2964 2961 2958 2955 2952 2950 2946 2944 2940 2938 2935 2932 2929 2926 2924 2922 2920 2918 2916 2914 2913 2911 2910 2908 2907 2906 2905 2904 2903 2903 2903 2902 2902 2901 2900 2900 2900 2901 2902 2902 2901 2902 2903 2903 2899 2897 2897 2897 2896 2895 2895 2895 2895 2895 2895 2895 2894 2894 2894 2894 2894 2894 2893 2890 2887
2974 2971 2969 2966 2963 2960 2957 2954 2951 2948 2945 2942 2939 2936 2933 2930 2928 2925 2923 2920 2919 2916 2915 2913 2911 2910 2908 2907 2906 2905 2904 2903 2902 2901 2901 2901 2900 2900 2899 2899 2899 2900 2900 2901 2900 2901 2902 2901 2899 2897 2897 2896 2895 2895 2895 2895 2895 2895 2894 2894 2894 2894 2894 2894 2893 2893 2893 2892 2889
2974 2971 2968 2965 2962 2959 2956 2953 2950 2947 2944 2941 2938 2935 2932 2930 2927 2925 2922 2920 2918 2916 2914 2912 2910 2909 2907 2906 2905 2904 2903 2902 2901 2900 2900 2900 2899 2899 2899 2898 2898 2899 2899 2900 2900 2900 2901 2900 2898 2897 2896 2896 2895 2895 2895 2894 2894 2894 2894 2894 2894 2894 2894 2894 2893 2892 2892 2893 2890
2973 2970 2967 2964 2961 2958 2955 2952 2949 2946 2943 2940 2937 2934 2932 2929 2927 2925 2922 2920 2918 2916 2914 2912 2910 2908 2907 2905 2904 2903 2902 2901 2900 2900 2899 2899 2899 2898 2898 2898 2897 2898 2898 2899 2899 2900 2900 2899 2898 2897 2897 2897 2896 2896 2895 2895 2894 2894 2894 2894 2894 2894 2894 2893 2893 2891 2891 2891 2889
2972 2969 2966 2963 2960 2957 2954 2951 2948 2945 2942 2939 2936 2934 2931 2929 2927 2925 2923 2921 2919 2916 2914 2912 2910 2908 2906 2905 2903 2902 2901 2900 2900 2899 2899 2898 2898 2898 2898 2897 2897 2897 2897 2898 2898 2899 2899 2898 2897 2897 2897 2897 2897 2896 2895 2895 2894 2894 2894 2894 2894 2894 2893 2893 2891 2889 2888 2888 2887
2971 2968 2965 2962 2959 2956 2953 2950 2947 2945 2942 2939 2936 2933 2931 2929 2927 2925 2923 2921 2919 2917 2915 2912 2910 2908 2906 2905 2903 2902 2901 2900 2899 2899 2899 2898 2898 2898 2898 2897 2897 2897 2897 2897 2897 2898 2898 2897 2897 2897 2897 2897 2897 2896 2896 2895 2894 2894 2893 2893 2893 2893 2892 2891 2890 2888 2886 2886 2886